Terminal Aerodrome Forecast
Issued by NWS

Home | Current Version | Previous Version | Text Only | Print | Product List | Glossary On
Versions: 1 2 3 4 5 6 7 8 9 10 11 12 13 14 15 16 17
162
FTPA31 PHFO 241245 AAA
TAFHTO
TAF AMD
PHTO 241245Z 2413/2512 24006KT P6SM -RA BKN025
      TEMPO 2413/2417 3SM +RA BR
     FM242000 09010KT P6SM VCSH FEW025 BKN040
     FM250500 22008KT P6SM VCSH FEW025 BKN035=

USA.gov is the U.S. government's official web portal to all federal, state and local government web resources and services.